CEB161 RPLL-RPSP

Flight info

Callsign CEB161
Flight time N/A
Altitude 36000
Route IPATA2R IPATA W25 BATAY BATAY1P
Aircraft A339/H-SADE1E2E3GHIJ3J5M1P2RWXY/LB2D1

Departure

Time N/A
Airport Ninoy Aquino International Airport (RPLL)

Arrival

Time 2026-04-29 02:11
Airport Bohol-Panglao International Airport (RPSP)
Time Latitude Longitude Altitude Speed Heading
2026-04-29 01:54 9.52198 123.84338 7208 ft 271 kts 207°
2026-04-29 01:54 9.50523 123.83477 7027 ft 267 kts 207°
2026-04-29 01:55 9.48876 123.82631 6852 ft 263 kts 207°
2026-04-29 01:55 9.47264 123.81802 6681 ft 259 kts 207°
2026-04-29 01:55 9.45666 123.80981 6515 ft 256 kts 207°
2026-04-29 01:55 9.44105 123.80179 6355 ft 252 kts 207°
2026-04-29 01:56 9.42547 123.79378 6195 ft 249 kts 207°
2026-04-29 01:56 9.41028 123.78598 6041 ft 245 kts 207°
2026-04-29 01:56 9.39506 123.77817 5887 ft 241 kts 207°
2026-04-29 01:56 9.38020 123.77048 5737 ft 238 kts 210°
2026-04-29 01:57 9.36844 123.75938 5554 ft 235 kts 243°
2026-04-29 01:57 9.36489 123.74343 5353 ft 233 kts 277°
2026-04-29 01:57 9.37025 123.72823 5144 ft 232 kts 300°
2026-04-29 01:57 9.37867 123.71416 4941 ft 231 kts 302°
2026-04-29 01:58 9.38713 123.70050 4739 ft 231 kts 302°
2026-04-29 01:58 9.39563 123.68695 4557 ft 227 kts 309°
2026-04-29 01:58 9.40826 123.67815 4305 ft 223 kts 349°
2026-04-29 01:58 9.42325 123.67979 4081 ft 218 kts 23°
2026-04-29 01:59 9.43638 123.68718 3884 ft 212 kts 33°
2026-04-29 01:59 9.44847 123.69534 3706 ft 206 kts 33°
2026-04-29 01:59 9.46036 123.70298 3442 ft 202 kts 31°
2026-04-29 01:59 9.47231 123.71021 3133 ft 198 kts 30°
2026-04-29 02:00 9.48406 123.71716 2789 ft 193 kts 30°
2026-04-29 02:00 9.49544 123.72388 2458 ft 189 kts 30°
2026-04-29 02:00 9.50671 123.73060 2137 ft 184 kts 30°
2026-04-29 02:00 9.51748 123.73703 1770 ft 182 kts 30°
2026-04-29 02:01 9.52841 123.74349 1318 ft 183 kts 30°
2026-04-29 02:01 9.53935 123.74989 890 ft 182 kts 31°
2026-04-29 02:01 9.55001 123.75627 510 ft 179 kts 31°
2026-04-29 02:01 9.56058 123.76266 207 ft 171 kts 31°
2026-04-29 02:02 9.57038 123.76859 220 ft 166 kts 31°
2026-04-29 02:02 9.58067 123.77539 829 ft 183 kts 45°
2026-04-29 02:02 9.58581 123.78693 1596 ft 196 kts 92°
2026-04-29 02:02 9.58079 123.80003 2318 ft 210 kts 133°
2026-04-29 02:03 9.56883 123.80859 2905 ft 223 kts 159°
2026-04-29 02:03 9.55359 123.81228 3384 ft 227 kts 171°
2026-04-29 02:03 9.53802 123.81484 3531 ft 228 kts 170°
2026-04-29 02:03 9.52256 123.81791 3531 ft 227 kts 168°
2026-04-29 02:04 9.50712 123.82143 3532 ft 227 kts 170°
2026-04-29 02:04 9.49164 123.82045 3525 ft 226 kts 199°
2026-04-29 02:04 9.47733 123.81399 3534 ft 227 kts 207°
2026-04-29 02:04 9.46324 123.80662 3533 ft 227 kts 207°
2026-04-29 02:05 9.44923 123.79961 3533 ft 227 kts 205°
2026-04-29 02:05 9.43493 123.79283 3533 ft 227 kts 204°
2026-04-29 02:05 9.42038 123.78622 3533 ft 227 kts 204°
2026-04-29 02:05 9.40604 123.77986 3533 ft 227 kts 204°
2026-04-29 02:06 9.39157 123.77351 3533 ft 227 kts 203°
2026-04-29 02:06 9.37732 123.76677 3529 ft 226 kts 215°
2026-04-29 02:06 9.36800 123.75448 3504 ft 225 kts 255°
2026-04-29 02:06 9.36799 123.73879 3311 ft 224 kts 288°
2026-04-29 02:07 9.37474 123.72479 3091 ft 224 kts 300°
2026-04-29 02:07 9.38278 123.71115 2898 ft 224 kts 301°
2026-04-29 02:07 9.39057 123.69769 2714 ft 224 kts 300°
2026-04-29 02:07 9.40023 123.68545 2534 ft 222 kts 327°
2026-04-29 02:08 9.41444 123.68054 2333 ft 221 kts
2026-04-29 02:08 9.42946 123.68404 2114 ft 221 kts 25°
2026-04-29 02:08 9.44277 123.69151 2042 ft 220 kts 32°
2026-04-29 02:08 9.45578 123.69992 2135 ft 220 kts 32°
2026-04-29 02:09 9.46848 123.70785 2154 ft 213 kts 31°
2026-04-29 02:09 9.48113 123.71543 1962 ft 209 kts 30°
2026-04-29 02:09 9.49337 123.72266 1666 ft 199 kts 30°
2026-04-29 02:09 9.50500 123.72957 1420 ft 188 kts 30°
2026-04-29 02:10 9.51597 123.73611 1179 ft 183 kts 30°
2026-04-29 02:10 9.52692 123.74265 939 ft 182 kts 30°
2026-04-29 02:10 9.53788 123.74909 698 ft 181 kts 30°
2026-04-29 02:10 9.54872 123.75552 471 ft 181 kts 31°
2026-04-29 02:11 9.55943 123.76202 217 ft 180 kts 30°
2026-04-29 02:11 9.57014 123.76839 59 ft 172 kts 31°
2026-04-29 02:11 9.57859 123.77345 59 ft 112 kts 30°
2026-04-29 02:11 9.58318 123.77611 59 ft 22 kts 30°
2026-04-29 02:12 9.58329 123.77621 58 ft 0 kts 59°
2026-04-29 02:12 9.58330 123.77628 58 ft 2 kts 89°
2026-04-29 02:12 9.58310 123.77632 58 ft 6 kts 202°
2026-04-29 02:12 9.58260 123.77593 58 ft 11 kts 221°
2026-04-29 02:13 9.58179 123.77537 58 ft 15 kts 212°
2026-04-29 02:13 9.58079 123.77476 58 ft 18 kts 211°
2026-04-29 02:13 9.57967 123.77408 59 ft 19 kts 211°
2026-04-29 02:13 9.57854 123.77339 58 ft 18 kts 211°
2026-04-29 02:14 9.57740 123.77271 59 ft 18 kts 210°
2026-04-29 02:14 9.57626 123.77203 58 ft 19 kts 210°
2026-04-29 02:14 9.57503 123.77131 58 ft 20 kts 210°
2026-04-29 02:14 9.57409 123.77089 59 ft 12 kts 171°
2026-04-29 02:15 9.57334 123.77138 58 ft 13 kts 126°
2026-04-29 02:15 9.57288 123.77212 58 ft 10 kts 122°
2026-04-29 02:15 9.57225 123.77232 58 ft 11 kts 194°
2026-04-29 02:15 9.57153 123.77198 59 ft 10 kts 210°
2026-04-29 02:16 9.57088 123.77159 58 ft 9 kts 210°
2026-04-29 02:16 9.57035 123.77138 58 ft 7 kts 166°
2026-04-29 02:16 9.57006 123.77166 58 ft 4 kts 120°
2026-04-29 02:16 9.56989 123.77194 58 ft 3 kts 121°
2026-04-29 02:17 9.56984 123.77203 58 ft 0 kts 121°